Regional Weather Roundup
Issued by NWS

Home | Current Version | Previous Version | Text Only | Print | Product List | Glossary Off
Versions: 1 2 3 4 5 6 7 8 9 10 11 12 13 14 15 16 17 18 19 20 21 22 23 24 25 26 27 28 29 30 31 32 33 34 35 36 37 38 39 40 41 42 43 44 45 46 47 48 49 50

000
ASUS43 KLOT 272112
RWRIL

ILLINOIS REGIONAL WEATHER ROUNDUP
NATIONAL WEATHER SERVICE CHICAGO/ROMEOVILLE IL
400 PM CDT MON APR 27 2015

NOTE: "FAIR" INDICATES FEW OR NO CLOUDS BELOW 12,000 FEET WITH NO
SIGNIFICANT WEATHER AND/OR OBSTRUCTIONS TO VISIBILITY.

* THESE STATIONS ARE NOT UNDER NWS QUALITY CONTROL. THEY ALSO MAY NOT
  REPORT WEATHER SUCH AS PRECIPITATION OR FOG.

ILZ001-002-007-009-015-016-024-272200-
NORTHWEST ILLINOIS

CITY           SKY/WX    TMP DP  RH WIND       PRES   REMARKS
MOLINE         SUNNY     66  34  30 N9G17     30.10F
STERLING*      SUNNY     66  37  34 N10G17    30.09F
SAVANNA*       SUNNY     66  32  27 NE12G17   30.10F
$$

ILZ003-004-008-010-011-017-018-272200-
NORTH CENTRAL ILLINOIS

CITY           SKY/WX    TMP DP  RH WIND       PRES   REMARKS
ROCKFORD       MOSUNNY   65  32  29 NE17      30.11F
FREEPORT*      SUNNY     63  33  32 N9        30.11F
ROCHELLE*      SUNNY     62  34  34 N13G22    30.09F
DE KALB*       MOSUNNY   60  34  36 N13       30.09F
PERU*          SUNNY     63  33  32 N15G21    30.08F
$$

ILZ005-006-012>014-019>023-272200-
NORTHEAST ILLINOIS

CITY           SKY/WX    TMP DP  RH WIND       PRES   REMARKS
CHICAGO-OHARE  MOSUNNY   53  33  46 NE16      30.12S
CHICAGO-MIDWAY MOSUNNY   54  34  46 N18       30.13S
AURORA         MOSUNNY   62  35  36 N17G24    30.08F
LANSING*       SUNNY     51  33  50 N12G20    30.13S
JOLIET*        MOSUNNY   61  37  40 N9        30.09S
WAUKEGAN       SUNNY     48  34  58 NE14G23   30.13R
DUPAGE AIRPORT SUNNY     56  37  49 NE16      30.09S
KANKAKEE*      SUNNY     57  37  48 N15       30.09F
WHEELING       SUNNY     52  33  48 NE12G22   30.15R
MORRIS*        MOSUNNY   62  35  37 N7G16     30.07F
ROMEOVILLE*    SUNNY     59  36  42 E13       30.09S
NORTHERLY ISL    N/A     48  35  60 MISG        N/A
$$

LMZ740>746-272200-
SOUTHERN LAKE MICHIGAN

STATION/POSITION SKY/WX   TEMP    WIND        PRES    VSBY  WAVE
                          AIR SEA DIR/SP/G                  HT/PER
                          (F)     (DEG/KT/KT) (MB)    (MI)  (FT/S)
HARRISON CRIB              41      10/  9/ 11   N/A
BURNHAM HARBOR             47     350/  9/ 11   N/A
CALUMET HARBOR             46     350/  8/ 12   N/A
BURNS HARBOR               44      20/ 10/ 13 1020.7R
MICHIGAN CITY              43     340/ 15/ 17   N/A
MICHIGAN CITY 6N           42 45   20/ 12/ 16   N/A           4/ 5
$$

ILZ025>027-034>036-040-047-049-050-058-095>099-272200-
WEST-CENTRAL ILLINOIS

CITY           SKY/WX    TMP DP  RH WIND       PRES   REMARKS
QUINCY         SUNNY     64  38  38 NE16      30.07F
GALESBURG*     SUNNY     63  37  37 N14G20    30.09F
MACOMB*        SUNNY     65  35  33 NE12G20   30.10F
JACKSONVILLE*  SUNNY     65  36  33 N13       30.07F
PITTSFIELD*    SUNNY     65  36  33 N15G21    30.07F
$$

ILZ028>032-037-038-041>044-048-051>054-059>061-272200-
CENTRAL ILLINOIS

CITY           SKY/WX    TMP DP  RH WIND       PRES   REMARKS
PONTIAC        SUNNY     63  38  39 N13G30    30.09F
BLOOMINGTON    SUNNY     63  39  41 NE16G24   30.08F
DECATUR        SUNNY     63  39  41 N20G25    30.06F
PEORIA         SUNNY     65  36  34 N13G21    30.08F
LACON*         SUNNY     63  37  37 N5G17     30.08F
LINCOLN*       SUNNY     64  38  38 N16G24    30.05F
SPRINGFIELD    SUNNY     65  37  35 N16G24    30.06F
TAYLORVILLE    SUNNY     63  36  36 NE20G28   30.05F
$$

ILZ033-039-045-046-055>057-062-063-272200-
EAST-CENTRAL ILLINOIS

CITY           SKY/WX    TMP DP  RH WIND       PRES   REMARKS
CHAMPAIGN      MOSUNNY   62  37  39 N18G29    30.06F
DANVILLE*      SUNNY     56  38  50 N21G30    30.05S
RANTOUL*       SUNNY     61  37  40 N24       30.06F
MATTOON        SUNNY     60  37  42 N21G29    30.04S
PARIS*         MOSUNNY   59  39  47 N14G22    30.06S
$$

ILZ079-100>102-272200-
SOUTHWEST ILLINOIS

CITY           SKY/WX    TMP DP  RH WIND       PRES   REMARKS
ALTON          MOSUNNY   64  27  24 NE16      30.05F
BELLEVILLE     SUNNY     66  39  37 N18       30.04S
CAHOKIA*       SUNNY     67  38  34 N12       30.04F
SPARTA*        SUNNY     63  40  43 N16G24    30.04F
$$

ILZ064>066-069>071-074>076-080>082-084>086-088>090-092>094-272200-
SOUTH-CENTRAL ILLINOIS

CITY           SKY/WX    TMP DP  RH WIND       PRES   REMARKS
CARBONDALE     SUNNY     66  39  37 N15       30.03S
CAIRO*         SUNNY     65  39  37 N9G16     30.00F
EFFINGHAM*     SUNNY     63  34  33 N10G21    30.05F
MARION         PTSUNNY   64  39  39 N13       30.03S
MT. VERNON     SUNNY     63  39  42 NE12G17   30.04F
CENTRALIA*     SUNNY     66  37  34 N16       30.03F
SALEM*         SUNNY     65  37  35 N18       30.04F
METROPOLIS*    SUNNY     66  40  38 N12       29.99F
$$

ILZ067-068-072-073-078-083-087-091-272200-
SOUTHEAST ILLINOIS

CITY           SKY/WX    TMP DP  RH WIND       PRES   REMARKS
LAWRENCEVILLE  SUNNY     63  38  39 N17G30    30.02S
FLORA*         SUNNY     63  39  41 N16G22    30.03F
FAIRFIELD*     MOSUNNY   62  41  46 N12       30.02F
HARRISBURG*    SUNNY     64  39  39 NE14G20   30.02F
ROBINSON*      SUNNY     61  38  41 N17G26    30.04S
CARMI*         SUNNY     65  34  31 N18       30.01S
$$

ABBREVIATIONS USED IN REMARKS
   TC - TEMPERATURE IN CELSIUS
  WCI - WIND CHILL INDEX
   HX - HEAT INDEX
  VSB - VISIBILITY
$$




USA.gov is the U.S. government's official web portal to all federal, state and local government web resources and services.